Showing default

IRIDIUM 107, 42960

Orbit data source: Space-Track

IRIDIUM 107, 42960 is a payload satellite owned by Iridium (US) in LEO that was launched on Mon, 09 Oct 2017 UTC via an FALCON 9 launch vehicle from the Air Force Western Test Range (AFWTR). Payload-class satellites include a variety of spacecraft equipped with specific instruments for various scientific and technological missions. These include communications satellites like Starlink; space stations such as the ISS; scientific satellites like the Hubble; Earth observation satellites from companies like Planet Labs, Umbra, and HawkEye 360; GPS; miniature CubeSats for education and research; and military/defense satellites.

Loading next visibility...
Identifier
42960, 2017-061F
Orbit
LEO
Country
Flag of USUS
Related business
Manufacturer
OATK SSG Gilbert
Mission
Operational Commercial Communications
Bus & Motor
ELITEBUS, Unknown motor
Mass
860 kg wet, 700 kg dry
Launch date (UTC)
2017-10-09 (8 years ago)
Launch vehicle
FALCON 9
Launch site
Air Force Western Test Range (AFWTR)
Object type
Payload
Rocket body
Debris
Shape & HBR
Trap Box + 2 Pan, 4.8 m
Radar Cross Section
10.154 m², Large (>1 m²)

Expand to show TLE details & history
Last TLE update: 6 hours ago

TLE from 6 hours ago
0 IRIDIUM 107
1 42960U 17061F   25342.81720740  .00000531  00000-0  18260-3 0  9990
2 42960  86.3964 104.8752 0001831 106.8855 253.2542 14.34218224427537
Epoch: 2025-12-08T19:36Z
TLE epoch observation values (Epoch: 2025-12-08T19:36:46.719Z)
Latitude
0.00002°
Longitude
92.86974°
Altitude
781.094 km
Speed
7.463 km/s
True Right ascension
06h 59m 30s
True Declination
0° 00' 00"
Sunlit
Object was in full shadow at epoch
Visualization orbit readout
Latitude
Unknown
Longitude
Unknown
Altitude
Unknown
Speed
Unknown
Apparent Right ascension
Unknown
Apparent Declination
Unknown
Sunlit
N/A
Visualization observer readout
Local Sidereal Time
23:29:38
Azimuth
Unknown
Elevation
Unknown
Doppler factor
Unknown
Orbital elements
Apogee altitude
775.94 km
Perigee altitude
773.32 km
Semi-major axis
7,152.767 km
Eccentricity
0.00018
Inclination
86.3964°
RAAN
104.8752°
Arg. of periapsis
106.8855°
True anomaly
253.23411°
Mean anomaly
253.2542°
Eccentric anomaly
253.24415°
Mean motion
3.58783 °/min
Orbital period
100.34 mins
BSTAR
0.0001826
Loading maneuver chart data...
Computing Atmospheric mass density...
Loading historical data...
Loading historical data...
Loading historical data...
Loading historical data...
Loading historical data...
Loading historical data...
Loading historical data...

Documentation

Showing up to 5 results
|